{"data":{"norad_id":59243,"intl_designator":"2024-049N","name":"STARLINK-31433","alt_names":[],"object_type":"PAYLOAD","status":"ACTIVE","operator":null,"country":"US","launch_date":"2024-03-16","launch_site_code":"AFETR","launch_vehicle":null,"mission":null,"orbit_class":"UNKNOWN","rcs_meters":null,"size_class":null,"mass_kg":null,"dimensions":null,"purposes":["comms"],"wikipedia_slug":null,"has_3d_model":false,"image_url":null,"decayed_at":null,"tle_current":{"epoch":"2026-09-20T21:52:13.701216Z","epoch_age_seconds":123259,"freshness":"FRESH","line1":"1 59243U 24049N   26263.91126969  .00000507  00000+0  27957-4 0  9999","line2":"2 59243  43.0025 120.9458 0000886 284.5910  75.4843 15.27576936142266","mean_motion":15.27576936,"eccentricity":8.86e-5,"inclination_deg":43.0025,"raan_deg":120.9458,"arg_perigee_deg":284.591,"mean_anomaly_deg":75.4843,"bstar":2.7957e-5,"rev_number":14226,"period_min":94.266937793044,"perigee_km":482.45036887227,"apogee_km":483.66617267425,"semimajor_km":6861.1952707733,"source":"CELESTRAK","updated_at":"2026-09-21T09:00:34.076913Z"}}}